TimeEST,TemperatureF,Dew PointF,Humidity,Sea Level PressureIn,VisibilityMPH,Wind Direction,Wind SpeedMPH,Gust SpeedMPH,PrecipitationIn,Events,Conditions,WindDirDegrees,DateUTC
12:53 AM,66.0,64.9,96,30.18,6.0,Calm,Calm,-,N/A,,Clear,0,2013-01-06 05:53:00
1:16 AM,66.2,64.4,94,30.16,5.0,East,6.9,-,N/A,,Scattered Clouds,80,2013-01-06 06:16:00
1:21 AM,66.2,66.2,100,30.16,2.5,East,6.9,-,N/A,,Mostly Cloudy,80,2013-01-06 06:21:00
1:30 AM,66.2,66.2,100,30.16,1.2,East,6.9,-,N/A,,Mostly Cloudy,80,2013-01-06 06:30:00
1:53 AM,66.0,66.0,100,30.16,1.2,East,5.8,-,N/A,,Overcast,90,2013-01-06 06:53:00
2:49 AM,66.2,66.2,100,30.15,2.5,East,4.6,-,N/A,,Overcast,90,2013-01-06 07:49:00
2:53 AM,66.0,66.0,100,30.15,3.0,East,3.5,-,N/A,,Overcast,90,2013-01-06 07:53:00
3:53 AM,66.0,66.0,100,30.15,3.0,ENE,4.6,-,N/A,,Overcast,70,2013-01-06 08:53:00
4:07 AM,66.2,66.2,100,30.14,2.5,ENE,5.8,-,N/A,,Overcast,70,2013-01-06 09:07:00
4:47 AM,66.2,66.2,100,30.13,1.8,Calm,Calm,-,N/A,,Overcast,0,2013-01-06 09:47:00
4:48 AM,66.0,66.0,100,30.13,1.8,Calm,Calm,-,N/A,,Overcast,0,2013-01-06 09:48:00
5:53 AM,64.9,64.9,100,30.13,0.5,East,5.8,-,N/A,Fog,Fog,80,2013-01-06 10:53:00
6:53 AM,64.9,64.9,100,30.14,0.5,NNE,6.9,-,N/A,Fog,Fog,30,2013-01-06 11:53:00
7:53 AM,64.9,64.9,100,30.15,0.2,ENE,4.6,-,N/A,Fog,Fog,70,2013-01-06 12:53:00
8:39 AM,66.2,64.4,94,30.16,0.8,East,4.6,-,N/A,,Overcast,100,2013-01-06 13:39:00
8:49 AM,66.2,64.4,94,30.16,1.2,East,4.6,-,N/A,,Overcast,100,2013-01-06 13:49:00
8:53 AM,66.0,64.9,96,30.17,1.5,East,6.9,-,N/A,,Overcast,80,2013-01-06 13:53:00
9:18 AM,66.2,66.2,100,30.16,2.5,East,4.6,-,N/A,,Overcast,90,2013-01-06 14:18:00
9:25 AM,66.2,66.2,100,30.16,3.0,East,5.8,-,N/A,,Overcast,90,2013-01-06 14:25:00
9:53 AM,69.1,66.9,93,30.17,10.0,ESE,6.9,-,N/A,,Mostly Cloudy,110,2013-01-06 14:53:00
10:22 AM,73.4,66.2,78,30.16,10.0,Variable,5.8,-,N/A,,Scattered Clouds,0,2013-01-06 15:22:00
11:53 AM,80.1,69.1,69,30.13,10.0,SE,10.4,-,N/A,,Partly Cloudy,140,2013-01-06 16:53:00
12:53 PM,79.0,68.0,69,30.10,10.0,SSE,6.9,-,N/A,,Mostly Cloudy,160,2013-01-06 17:53:00
1:53 PM,80.1,66.0,62,30.07,10.0,SSE,6.9,-,N/A,,Partly Cloudy,160,2013-01-06 18:53:00
2:53 PM,81.0,66.0,60,30.06,10.0,SSW,11.5,-,N/A,,Clear,200,2013-01-06 19:53:00
3:53 PM,81.0,64.9,58,30.06,10.0,SSW,8.1,-,N/A,,Partly Cloudy,210,2013-01-06 20:53:00
4:53 PM,79.0,66.0,64,30.07,10.0,SW,8.1,-,N/A,,Mostly Cloudy,220,2013-01-06 21:53:00
5:53 PM,75.9,68.0,76,30.09,10.0,WSW,5.8,-,N/A,,Mostly Cloudy,250,2013-01-06 22:53:00
6:53 PM,73.9,68.0,82,30.09,10.0,WSW,3.5,-,N/A,,Overcast,240,2013-01-06 23:53:00
7:53 PM,73.0,68.0,84,30.11,10.0,Calm,Calm,-,N/A,,Mostly Cloudy,0,2013-01-07 00:53:00
8:53 PM,72.0,69.1,91,30.12,10.0,Calm,Calm,-,N/A,,Clear,0,2013-01-07 01:53:00
9:53 PM,71.1,68.0,90,30.13,10.0,Calm,Calm,-,N/A,,Clear,0,2013-01-07 02:53:00
10:08 PM,71.6,69.8,94,30.13,10.0,NW,3.5,-,N/A,,Mostly Cloudy,310,2013-01-07 03:08:00
10:16 PM,71.6,69.8,94,30.13,10.0,NW,6.9,-,N/A,,Mostly Cloudy,310,2013-01-07 03:16:00
10:53 PM,71.1,69.1,93,30.13,10.0,NW,3.5,-,N/A,,Overcast,320,2013-01-07 03:53:00
11:03 PM,71.6,69.8,94,30.12,10.0,Calm,Calm,-,N/A,,Overcast,0,2013-01-07 04:03:00
11:13 PM,71.6,69.8,94,30.12,10.0,North,4.6,-,N/A,,Overcast,360,2013-01-07 04:13:00
11:36 PM,71.6,69.8,94,30.12,10.0,North,3.5,-,N/A,,Scattered Clouds,360,2013-01-07 04:36:00
11:48 PM,71.6,69.8,94,30.12,10.0,NNE,4.6,-,N/A,,Mostly Cloudy,30,2013-01-07 04:48:00
11:53 PM,71.1,68.0,90,30.12,10.0,NNE,4.6,-,N/A,,Mostly Cloudy,30,2013-01-07 04:53:00